Location: Muenchen
(48.1800°N, 11.5800°E)
Time: 10:48:03
(UTC+02:00)

Cosmos 1455 - Visible Passes

Search period start: 18 April 2015 00:00
Search period end: 28 April 2015 00:00
Orbit: 510 x 538 km, 82.5° (Epoch: 16 April)

Date Brightness Start Highest point End Pass type
(mag) Time Alt. Az. Time Alt. Az. Time Alt. Az.
18 Apr 3.4 20:52:59 10° SE 20:56:08 25° E 20:59:22 10° NE visible
18 Apr 4.2 22:28:34 10° SW 22:31:59 28° WNW 22:35:20 10° NNW visible
19 Apr 3.5 20:40:39 10° SE 20:43:39 22° E 20:46:42 10° NE visible
19 Apr 4.1 22:15:55 10° SW 22:19:25 31° WNW 22:22:53 10° N visible
20 Apr 3.9 22:03:15 10° SW 22:06:50 35° WNW 22:10:24 10° N visible
21 Apr 3.7 21:50:36 10° SW 21:54:15 39° WNW 21:57:54 10° N visible
22 Apr 3.4 21:37:57 10° SSW 21:41:40 44° WNW 21:45:22 10° N visible
23 Apr 3.2 21:25:18 10° SSW 21:29:04 50° WNW 21:32:49 10° N visible
24 Apr 3.0 21:12:39 10° SSW 21:16:27 56° WNW 21:20:15 10° N visible
25 Apr 2.7 21:00:01 10° SSW 21:03:50 64° W 21:07:40 10° N visible
26 Apr 2.5 20:47:22 10° SSW 20:51:13 73° W 20:55:04 10° N visible
